Location: Kellogg
(38.0159°N, 90.0546°W)
Time: 06:27:34
(UTC+00:00)

Vanguard 1 Rocket - Pass Details

Date: 13 September 2024
Orbit: 650 x 4218 km, 34.3° (Epoch: 05 October)

Event Time Altitude Azimuth Distance (km) Brightness Sun altitude
Rises 10:07:06 0° 240° (WSW) 5,581 - -18.8°
Reaches altitude 10° 10:10:05 10° 238° (WSW) 4,941 - -18.2°
Exits shadow 10:12:40 20° 235° (SW) 4,454 10.3 -17.7°
Maximum altitude 10:25:57 69° 158° (SSE) 3,647 10.4 -15.3°
Drops below altitude 10° 10:51:34 10° 82° (E) 7,421 13.6 -10.4°
Sets 10:57:21 0° 81° (E) 8,375 14.7 -9.3°
